This is the latest recevied weather packets stored in our database for station/object W4GAP. If no packets are shown the sender has not sent any weather packets the latest 10 day(s).
| Time | Temp. | Humidity | Pressure | Rain* | Wind** | Luminosity | Snow |
|---|---|---|---|---|---|---|---|
| 1777558225 | 15.56° C | 92% | 1008.4 hPa | 0 mm | - | 63 W/m² | - |
| 1777557921 | 15° C | 93% | 1008.8 hPa | 0 mm | - | 62 W/m² | - |
| 1777557618 | 15° C | 93% | 1008.7 hPa | 0 mm | - | 52 W/m² | - |
| 1777557314 | 15° C | 93% | 1008.6 hPa | 0 mm | - | 47 W/m² | - |
| 1777557011 | 15° C | 94% | 1008.5 hPa | 0 mm | - | 38 W/m² | - |
| 1777556706 | 15° C | 94% | 1008.6 hPa | 0 mm | - | 38 W/m² | - |
| 1777556403 | 15° C | 94% | 1008.5 hPa | 0 mm | - | 42 W/m² | - |
| 1777556098 | 15° C | 94% | 1008.6 hPa | 0 mm | - | 23 W/m² | - |
| 1777555797 | 15° C | 94% | 1008.3 hPa | 0 mm | - | 19 W/m² | - |
| 1777555494 | 15.56° C | 95% | 1008.2 hPa | 0 mm | - | 31 W/m² | - |
| 1777555190 | 15.56° C | 95% | 1007.9 hPa | 0 mm | - | 20 W/m² | - |
| 1777554888 | 15.56° C | 95% | 1008 hPa | 0 mm | - | 29 W/m² | - |
| 1777554585 | 15.56° C | 96% | 1007.9 hPa | 0 mm | - | 36 W/m² | - |
| 1777554281 | 15.56° C | 96% | 1008.2 hPa | 0 mm | - | 50 W/m² | - |
| 1777553978 | 15° C | 96% | 1008 hPa | 0 mm | - | 19 W/m² | - |
| 1777553675 | 15° C | 96% | 1007.8 hPa | 0 mm | - | 19 W/m² | - |
| 1777553372 | 15° C | 97% | 1007.9 hPa | 0 mm | - | 26 W/m² | - |
| 1777553068 | 15.56° C | 97% | 1007.7 hPa | 0 mm | - | 25 W/m² | - |
| 1777552763 | 15.56° C | 98% | 1007.7 hPa | 0 mm | - | 27 W/m² | - |
| 1777552459 | 15.56° C | 98% | 1007.9 hPa | 0 mm | - | 29 W/m² | - |
| 1777552156 | 15° C | 98% | 1007.9 hPa | 0 mm | - | 30 W/m² | - |
| 1777551852 | 15° C | 98% | 1007.9 hPa | 0 mm | - | 37 W/m² | - |
| 1777551550 | 15° C | 98% | 1007.4 hPa | 0 mm | - | 22 W/m² | - |
| 1777551247 | 15° C | 98% | 1007.4 hPa | 0 mm | - | 23 W/m² | - |
| 1777550944 | 15° C | 98% | 1007.6 hPa | 0 mm | - | 12 W/m² | - |
* Rain latest hour (hover to see other rain measurements)
** Current wind speed in m/s (hover to see current wind gust speed)